Location: Barcelona
(41.3830°N, 2.1830°E)
Time: 13:22:25
(UTC+02:00)

Hubble Space Telescope - Pass Details

Date: 17 June 2019
Orbit: 536 x 540 km, 28.5° (Epoch: 16 October)

Event Time Altitude Azimuth Distance (km) Brightness Sun altitude
Exits shadow 04:20:20 11° 151° (SSE) 1,729 3.1 -16.7°
Drops below altitude 10° 04:20:43 10° 147° (SSE) 1,791 3.2 -16.7°
Sets 04:23:59 0° 119° (ESE) 2,667 4.4 -16.3°
